Regional Weather Roundup
Issued by NWS Charleston, SC

Current Version | Previous Version | Graphics & Text | Print | Product List | Glossary On
Versions: 1 2 3 4 5 6 7 8 9 10 11 12 13 14 15 16 17 18 19 20 21 22 23 24 25 26 27 28 29 30 31 32 33 34 35 36 37 38 39 40 41 42 43 44 45 46 47 48 49 50
259
ASUS42 KCHS 282228
RWRCHS

REGIONAL WEATHER ROUNDUP
NATIONAL WEATHER SERVICE CHARLESTON SC
600 PM EDT THU JUL 28 2016

NOTE: "FAIR" INDICATES FEW OR NO CLOUDS BELOW 12,000 FEET WITH NO
SIGNIFICANT WEATHER AND/OR OBSTRUCTIONS TO VISIBILITY.

NOT ALL STATIONS ARE QUALITY CONTROLLED. USE DATA WITH CAUTION...
ESPECIALLY DEWPOINT OBSERVATIONS.

SCZ027-030-031-034>040-042>050-282300-
...SOUTHEAST SOUTH CAROLINA...

CITY           SKY/WX    TMP DP  RH WIND       PRES   REMARKS
N CHARLESTON   MOSUNNY   94  74  52 SW15      29.93S HX 104
WATERFRONT PRK   N/A     89  79  72 S9        29.92F HX 104
MOUNT PLEASANT FAIR      91  79  66 S12       29.93F HX 107
JOHNS ISLAND   FAIR      90  79  70 S13G20    29.94S HX 105
PINOPOLIS        N/A     95  72  46 SW12      29.83F HX 103
MONCKS CORNER  FAIR      91  63  38 SW8       29.91F HX  92
SUMMERVILLE    NOT AVBL
BEAUFORT MCAS  MOSUNNY   93  77  59 S8        29.93F HX 107
BEAUFORT ARPT  FAIR      90  77  66 S10G23    29.93F HX 102
HILTON HEAD IS SUNNY     95  79  59 S14       29.95F HX 112
WALTERBORO     CLEAR     97  63  32 W7        29.93F HX  98
ALLENDALE      FAIR      97  64  34 SW8       29.91F HX  99

...SOUTHERN MIDLANDS AND PEE DEE...

CITY           SKY/WX    TMP DP  RH WIND       PRES   REMARKS
GEORGETOWN     FAIR      90  77  66 S13G18    29.93S HX 102
KINGSTREE      FAIR      95  63  34 SW9G17    29.90S HX  96
ORANGEBURG     MOSUNNY   97  66  36 SW16      29.91F HX 100
BARNWELL       NOT AVBL
AIKEN          FAIR      93  64  38 SW15G21   29.96S HX  95
MANNING        FAIR      95  66  38 SW13      29.90F HX  98
COLUMBIA       MOSUNNY   99  66  33 W14G25    29.88F HX 103
SUMTER         SUNNY     98  65  34 SW16G24   29.87S HX 100
FLORENCE       SUNNY     96  70  42 SW15G23   29.88F HX 102
MYRTLE BEACH   MOSUNNY   91  72  52 S16G24    29.92F HX  98
N MYRTLE BEACH SUNNY     89  76  65 SW18      29.90F HX 100

$$

GAZ063-065-086>088-099>101-113>116-118-119-134>141-150-282300-
...SOUTHEAST GEORGIA...

CITY           SKY/WX    TMP DP  RH WIND       PRES   REMARKS
SAVANNAH ARPT  MOSUNNY   99  64  31 W10       29.94F HX 101
HUNTER AAF     NOT AVBL
FORT STEWART   NOT AVBL
STATESBORO     SUNNY     97  69  39 W7        29.93F HX 102
SYLVANIA       NOT AVBL
CLAXTON        FAIR      96  68  39 SW3       29.94S HX 101

...CSRA...CENTRAL AND FAR SOUTHEAST GEORGIA...

CITY           SKY/WX    TMP DP  RH WIND       PRES   REMARKS
THOMSON        NOT AVBL
AUGUSTA-BUSH   MOSUNNY   98  65  33 W15G22    29.91S HX 101
AUGUSTA-DANIEL MOSUNNY   96  65  35 W12G22    29.93F HX  98
SWAINSBORO     FAIR      95  63  34 W8G16     29.95F HX  96
VIDALIA        MOSUNNY   97  61  30 SW9G17    29.96S HX  97
EASTMAN        FAIR      97  37  12 W9        29.99S HX  92
HAZLEHURST     FAIR      98  67  36 SW8       29.96S HX 102
ALMA           MOSUNNY   96  64  34 W9G21     29.97S HX  98
WAYCROSS       SUNNY    101  69  34 W10       29.97R HX 107
JESUP          FAIR      99  72  41 W7        29.95S HX 107
BAXLEY         FAIR      97  70  41 W9        29.96S HX 103
BRUNSWICK      PTSUNNY   93  81  66 S10       29.97S HX 113
SAINT SIMONS   SUNNY     89  78  70 S12G20    29.97F HX 103

$$

SCZ027-028-034-036>038-045-046-048>050-GAZ119-141-282300-
...LAKE AND SUPPLEMENTAL COASTAL OBSERVATIONS...

STATION/POSITION TIME  TEMP    WIND        PRES    WAVE   SWELL
                       AIR SEA DIR/SP/G            HT/PER HT/PER/DIR
                 (UTC) (F)     (DEG/KT/KT) (MB)    (FT/S) (FT/S/D)
WINYAH BAY       2100   89     200/ 15     1012.0
LAKE MURRAY      2100   94     230/ 11/ 18 1011.5F
ACE BASIN NERRS  2100   91     160/  1     1014.0S
FORT PULASKI     2200      88  180/  6/ 13 1014.5F
SAPELO ISLAND    2200   91     160/ 14     1014.0F

$$

ANZ835-935-AMZ111-154-330-350-352-354-370-450-454-472-282300-
...C-MAN AND BUOY OBSERVATIONS...

STATION/POSITION TIME  TEMP    WIND        PRES    WAVE   SWELL
                       AIR SEA DIR/SP/G            HT/PER HT/PER/DIR
                 (UTC) (F)     (DEG/KT/KT) (MB)    (FT/S) (FT/S/D)
BUOY 41004       2150   87 86  210/ 16/ 17 1013.6F   3/ 5   2/150/ 8
BUOY 41008       2150   87 87  160/ 14/ 16 1014.3F   2/ 4   2/110/ 8
FOLLY BEACH CMAN 2200   87     200/ 17/ 20 1014.1F
CAPERS NEARSHORE 2208   86 85  210/ 16/ 21 1013.8R
FRIPP NEARSHORE  2208   87 87  200/ 17/ 21 1013.0F


STATION/POSITION TIME  TEMP    WIND        PRES    WAVE   SWELL
                       AIR SEA DIR/SP/G            HT/PER HT/PER/DIR
                 (UTC) (F)     (DEG/KT/KT) (MB)    (FT/S) (FT/S/D)
5E ST. MARYS GA  2201      86                N/A     2/ 3
FRYING PAN BUOY  2200   87 85  210/ 17/ 21 1012.9F
BUOY 41025       2150   87 86  230/ 16/ 17 1011.5S   3/ 5   2/210/ 6
CAPE LOOKOUT NC  2200   87     220/ 10/ 14 1011.5F
BUOY 41002       2150   84 85  230/ 12/ 12 1015.1S   3/ 6   3/250/ 6
BUOY 41010       2120   86 88  260/  4/  6 1017.5
ST AUGUSTINE FL  2200   85 86  120/ 12/ 13 1016.7R


$$




USA.gov is the U.S. government's official web portal to all federal, state and local government web resources and services.